Location: Emanuelin
(51.2982°N, 18.5637°E)
Time: 00:47:10
(UTC+00:00)

Daily predictions for brighter satellites

Satellite Brightness Start Highest point End
(mag) Time Altitude Azimuth Time Altitude Azimuth Time Altitude Azimuth
STARLINK-1212 2.7 00:00:35 10° WNW 00:03:39 62° SSW 00:06:43 10° ESE
STARLINK-1105 2.7 00:01:03 10° WNW 00:04:07 61° SSW 00:07:10 10° ESE
STARLINK-1209 3.0 00:01:18 10° WNW 00:04:22 48° SSW 00:06:55 14° SE
STARLINK-1247 2.8 00:01:57 10° WNW 00:05:02 61° SSW 00:08:08 10° ESE
ATLAS CENTAUR R/B 1.2 00:03:09 10° WNW 00:05:29 84° NE 00:10:07 10° ESE
STARLINK-1227 2.8 00:02:25 10° WNW 00:05:29 60° SSW 00:08:33 10° ESE
STARLINK-1208 3.6 00:01:25 10° WNW 00:05:35 86° NNE 00:09:44 10° ESE
STARLINK-1226 2.8 00:03:16 10° WNW 00:06:22 59° SSW 00:09:26 10° SE
STARLINK-1215 2.8 00:04:13 10° WNW 00:07:18 59° SSW 00:10:23 10° SE
STARLINK-1225 3.9 00:03:37 10° W 00:07:45 68° N 00:11:54 10° E
STARLINK-1217 2.8 00:05:59 10° WNW 00:09:03 57° SSW 00:12:08 10° SE
CZ-4C R/B 4.4 00:08:11 10° ESE 00:09:24 11° ESE 00:10:39 10° E
STARLINK-1229 2.8 00:06:54 10° WNW 00:09:59 57° SSW 00:13:03 10° SE
GEOS 3 Rocket 4.3 00:07:39 23° S 00:10:09 36° WSW 00:15:00 10° NW
STARLINK-1271 3.6 00:06:25 10° WNW 00:10:35 88° N 00:14:44 10° ESE
STARLINK-1270 2.8 00:07:46 10° WNW 00:10:51 56° SSW 00:13:54 10° SE
Cosmos 2058 Rocket 3.5 00:07:16 10° NNW 00:11:32 49° W 00:13:46 25° SSW
Meteor 1-29 3.8 00:08:51 10° N 00:12:04 40° WNW 00:13:32 25° WSW
Lacrosse 4 Rocket 4.0 00:08:29 10° NNW 00:12:05 24° NE 00:15:36 10° E
STARLINK-1189 2.9 00:09:37 10° WNW 00:12:41 54° SSW 00:15:45 10° SE
STARLINK-1230 3.9 00:08:35 10° W 00:12:44 68° N 00:16:53 10° E
STARLINK-1188 2.9 00:10:29 10° WNW 00:13:34 54° SSW 00:16:37 10° SE
Cosmos 2228 4.3 00:10:21 10° NNW 00:13:52 25° W 00:15:32 20° WSW
STARLINK-1235 3.1 00:11:13 10° WNW 00:14:12 44° SSW 00:17:10 10° SE
STARLINK-1187 3.0 00:11:37 10° WNW 00:14:38 48° SSW 00:17:38 10° SE
STARLINK-1154 3.5 00:11:24 10° WNW 00:15:34 89° SSW 00:19:43 10° ESE
SJ 16-02 2.4 00:11:34 10° NNW 00:15:51 46° ENE 00:20:07 10° SE
COSMOS 2455 2.9 00:11:40 20° SW 00:15:55 85° NW 00:22:00 10° NE
STARLINK-1191 2.9 00:12:59 10° WNW 00:16:00 52° SSW 00:19:02 10° SE
STARLINK-1221 2.9 00:13:51 10° WNW 00:16:53 51° SSW 00:19:54 10° SE
STARLINK-1243 3.9 00:13:35 10° W 00:17:43 68° N 00:21:52 10° E
STARLINK-1222 2.9 00:14:44 10° WNW 00:17:46 50° SSW 00:20:48 10° SE
STARLINK-1214 2.9 00:15:40 10° WNW 00:18:41 50° SSW 00:21:41 10° SE
Starlink 7 placeholder 3.0 00:19:27 31° ESE 00:19:27 31° ESE 00:20:47 10° E
Meteor 2-10 Rocket 4.2 00:13:35 10° N 00:18:54 54° ENE 00:23:57 10° SSE
STARLINK-1197 3.5 00:16:23 10° WNW 00:20:33 86° SSW 00:24:42 10° ESE
SL-14 R/B 3.4 00:18:39 27° SSW 00:20:36 60° WNW 00:24:27 10° N
STARLINK-1236 3.9 00:18:34 10° W 00:22:43 68° N 00:26:52 10° E
Cosmos 1300 3.2 00:19:40 10° NNW 00:23:19 44° W 00:25:04 26° SSW
Okean 1-7 Rocket 4.0 00:22:03 23° SW 00:24:38 51° WNW 00:29:03 10° N
Cosmos 1174 3.6 00:23:33 25° SW 00:25:17 67° NW 00:29:06 10° NE
STARLINK-1198 3.5 00:21:20 10° WNW 00:25:30 83° SSW 00:29:38 10° ESE
Cosmos 921 Rocket 3.0 00:23:34 24° SSW 00:26:06 82° ESE 00:30:26 10° NNE
BREEZE M DEB (TANK) 2.4 00:26:49 33° SW 00:27:20 39° SSW 00:30:46 10° ESE
STARLINK-1199 3.5 00:26:21 10° WNW 00:30:30 80° SSW 00:34:39 10° ESE
Cosmos 1626 Rocket 3.5 00:29:36 21° S 00:32:24 89° ESE 00:36:47 10° N
STARLINK-1269 3.9 00:28:32 10° W 00:32:41 69° N 00:36:50 10° E
Cosmos 2219 3.2 00:27:03 10° NNW 00:32:46 83° WSW 00:38:24 10° SSE
STARLINK-1210 3.5 00:31:18 10° WNW 00:35:28 76° SSW 00:39:36 10° ESE
Cosmos 1626 3.0 00:34:31 21° SW 00:36:28 38° WNW 00:39:58 10° N
STARLINK-1200 3.9 00:33:33 10° W 00:37:42 70° N 00:41:50 10° E
STARLINK-60 3.0 00:36:27 25° SW 00:38:05 62° SSE 00:41:16 10° ENE
STARLINK-1219 3.5 00:36:18 10° WNW 00:40:26 73° SSW 00:44:34 10° ESE
Nadezhda 1 Rocket 4.1 00:34:43 10° NNW 00:40:46 60° W 00:45:52 15° S
STARLINK-1192 3.9 00:38:32 10° WNW 00:42:41 71° N 00:46:50 10° E
FALCON 9 R/B 4.2 00:38:25 16° SW 00:44:01 33° SSE 01:03:56 10° ESE
STARLINK-1211 3.5 00:41:16 10° WNW 00:45:24 70° SSW 00:49:32 10° ESE
MOZ.5/SAFIR/RUBIN 5/SL-8 4.3 00:44:15 19° SSW 00:47:15 41° W 00:51:40 10° NNW
UNK 3.9 00:44:01 17° S 00:47:28 53° W 00:52:00 10° NNW
STARLINK-1244 3.9 00:43:30 10° WNW 00:47:39 72° N 00:51:48 10° E
Cosmos 2297 Rocket 2.1 00:42:44 10° NNW 00:48:25 79° WSW 00:54:03 10° SSE
AQUA 4.0 00:44:29 10° NNE 00:49:16 70° ESE 00:53:18 14° S
Cosmos 220 Rocket 4.0 00:46:16 19° SSW 00:49:21 84° WNW 00:53:50 10° NNE
STARLINK-1245 3.5 00:46:16 10° WNW 00:50:23 66° SSW 00:54:30 10° ESE
ERBS 4.2 00:47:21 10° NW 00:50:25 33° N 00:53:29 10° ENE
CZ-4B R/B 3.7 00:45:37 10° NNE 00:50:46 76° ESE 00:55:16 14° S
Cosmos 1812 Rocket 3.7 00:46:21 10° NNW 00:50:48 64° W 00:54:29 14° S
ERS-2 4.1 00:48:25 10° SE 00:51:39 30° ENE 00:54:54 10° N
Cosmos 2082 4.2 00:46:20 10° NNW 00:52:00 65° NE 00:57:36 10° SE
STARLINK-1138 3.8 00:48:29 10° WNW 00:52:39 73° N 00:56:48 10° E
SL-4 R/B 2.4 00:49:12 14° WSW 00:53:17 67° SSE 00:57:56 10° ENE
Cosmos 1437 3.6 00:52:48 20° WSW 00:54:19 33° WNW 00:57:06 10° N
STARLINK-1203 3.9 00:51:05 10° WNW 00:55:18 75° N 00:59:31 10° E
STARLINK-1233 3.6 00:51:14 10° WNW 00:55:21 63° SSW 00:59:27 10° SE
Cosmos 990 Rocket 4.0 00:50:51 10° NNW 00:56:09 89° WSW 01:01:25 10° SSE
CBERS-1 4.4 00:52:05 10° NNE 00:57:10 60° ESE 01:02:06 11° S
STARLINK-1143 3.8 00:53:29 10° WNW 00:57:38 75° N 01:01:48 10° E
STARLINK-1204 3.6 00:56:14 10° WNW 01:00:20 60° SSW 01:04:25 10° SE
ATLAS CENTAUR R/B 2.1 00:56:56 13° WSW 01:00:41 48° NW 01:04:39 10° NE
SL-16 R/B 2.9 00:56:01 13° S 01:01:19 47° W 01:07:16 10° NNW
Alouette 2 Rocket 4.2 00:54:53 10° NNW 01:02:02 80° WSW 01:06:38 10° S
STARLINK-1241 3.8 00:58:27 10° WNW 01:02:37 76° NNE 01:06:47 10° E
Cosmos 2263 Rocket 4.5 00:58:51 10° NNW 01:03:42 28° NE 01:08:29 10° E
BREEZE-M R/B 3.2 01:01:07 16° SW 01:03:59 36° SSE 01:06:36 10° E
NOSS 3-4 (A) 4.2 00:58:08 10° WSW 01:04:01 50° NNW 01:10:26 10° NE
NOSS 3-4 (C) 4.2 00:58:12 10° WSW 01:04:06 50° NNW 01:10:32 10° NE
FALCON 9 DEB 3.8 01:02:07 19° SSW 01:04:14 40° SSE 01:07:30 10° ENE
Cosmos 1602 Rocket 3.8 01:01:58 16° SSW 01:05:15 56° WNW 01:09:31 10° N
STARLINK-1238 3.6 01:01:11 10° WNW 01:05:16 56° SSW 01:09:20 10° SE
Cosmos 1825 Rocket 3.9 01:01:14 10° S 01:05:25 62° E 01:09:43 10° NNE
Cosmos 1455 2.1 01:02:05 10° NNW 01:05:49 68° W 01:09:23 11° S
STARLINK-29 3.1 01:04:34 18° SW 01:06:45 57° SSE 01:09:54 10° ENE
ATLAS 3B R/B 3.7 01:02:02 10° WNW 01:07:27 26° WSW 01:12:42 11° SSW
STARLINK-1239 3.8 01:03:26 10° WNW 01:07:36 78° N 01:11:46 10° E
IRS-1D 3.8 01:04:37 10° NNE 01:10:00 76° ESE 01:15:16 10° S
STARLINK-1201 3.7 01:06:12 10° WNW 01:10:14 53° SSW 01:14:17 10° SE
BREEZE-M DEB (TANK) 3.4 01:09:30 15° S 01:10:16 18° SSE 01:12:14 10° E
Meteor 1-28 Rocket 4.4 01:07:26 10° SE 01:11:02 43° ENE 01:14:38 10° N
GP-B 3.1 01:07:18 10° N 01:11:46 79° W 01:16:10 10° S
STARLINK-1240 3.7 01:08:26 10° WNW 01:12:36 80° NNE 01:16:45 10° E
BREEZE-M DEB (TANK) 1.1 01:12:38 12° WSW 01:14:46 56° S 01:17:14 10° E
STARLINK-1206 3.8 01:11:11 10° WNW 01:15:13 50° SSW 01:19:13 10° SE
Cosmos-2242 2.9 01:11:09 10° NNW 01:15:26 78° W 01:19:41 10° S
STARLINK-1365 4.5 01:13:46 14° SSW 01:16:06 28° SE 01:19:11 10° E
STARLINK-1362 4.5 01:15:10 14° SSW 01:17:33 28° SE 01:20:38 10° E
STARLINK-1216 3.7 01:13:25 10° WNW 01:17:35 82° NNE 01:21:44 10° ESE
Cosmos 1400 Rocket 3.6 01:13:42 10° N 01:17:45 54° ENE 01:21:48 10° SSE
STARLINK-1373 4.4 01:17:22 14° SSW 01:19:50 29° SE 01:22:57 10° E
STARLINK-1205 3.8 01:16:11 10° WNW 01:20:10 47° SSW 01:24:09 10° SE
Cosmos 2181 Rocket 4.1 01:15:33 10° NNW 01:21:57 74° W 01:28:22 10° S
STARLINK-1390 4.4 01:19:27 14° SSW 01:22:00 29° SE 01:25:07 10° E
STARLINK-1237 3.7 01:18:24 10° WNW 01:22:34 85° NNE 01:26:44 10° ESE
SL-08 R/B 3.3 01:17:55 10° SSE 01:22:38 89° W 01:27:18 10° NNW
RESURS DK-1 3.4 01:19:17 11° WSW 01:22:59 38° NW 01:26:54 10° NNE
Cosmos 2227 Rocket 2.4 01:18:25 10° NW 01:23:55 51° WSW 01:29:22 10° S
IRS-P3 4.3 01:19:27 10° NNE 01:24:49 73° ESE 01:30:08 10° S
STARLINK-1218 3.9 01:21:09 10° WNW 01:25:07 44° SSW 01:29:04 10° SE
CZ-2D R/B 2.6 01:20:23 10° N 01:25:27 48° WNW 01:30:15 11° SW
STARLINK-1202 3.6 01:23:23 10° WNW 01:27:34 87° NNE 01:31:43 10° ESE
CZ-4C R/B 4.4 01:24:51 10° SE 01:28:16 42° ENE 01:31:44 10° N
ADEOS II 2.2 01:22:59 10° NNE 01:28:17 83° ESE 01:33:34 10° SSW
Cosmos 1763 Rocket 3.6 01:23:47 10° SSW 01:28:54 74° ESE 01:33:59 10° NNE
Cosmos 1697 Rocket 3.3 01:23:43 10° S 01:29:12 53° ESE 01:34:43 10° NE
STARLINK-1254 4.0 01:26:09 10° WNW 01:30:05 42° SSW 01:34:00 10° SE
Cosmos 1703 3.3 01:26:49 10° SSW 01:30:46 78° W 01:34:45 10° N
ATLAS 2AS CENTAUR R/B 3.9 01:25:45 10° W 01:33:25 46° NNW 01:40:52 10° NE
STARLINK-1231 4.0 01:31:10 10° WNW 01:35:03 39° SSW 01:38:55 10° SE
Resurs 1-4 Rocket 2.9 01:30:14 10° N 01:35:08 40° WNW 01:40:02 10° SW
STARLINK-1246 3.6 01:33:20 10° WNW 01:37:30 87° SSW 01:41:40 10° ESE
STARLINK-1232 4.1 01:36:10 10° WNW 01:40:00 37° SW 01:43:50 10° SSE
CZ-2C R/B 4.5 01:37:08 10° NE 01:40:24 28° E 01:43:39 10° SSE
ARIANE 5 R/B 2.8 01:35:20 10° NNE 01:40:26 69° ESE 01:45:26 10° S
STARLINK-1224 3.6 01:38:19 10° WNW 01:42:29 84° SSW 01:46:38 10° ESE
NPP 4.4 01:37:32 10° N 01:42:34 41° WNW 01:47:35 10° SW
STARLINK-52 2.9 01:39:57 10° WSW 01:43:10 82° SSE 01:46:23 10° ENE
Cosmos 1758 Rocket 4.0 01:39:28 10° SSW 01:43:40 48° WNW 01:47:55 10° N
STARLINK-1208 4.2 01:41:09 10° W 01:44:56 35° SW 01:48:43 10° SSE
H-2A R/B 2.2 01:40:59 10° SSE 01:45:19 84° ENE 01:49:47 10° NNW
Meteor 1-27 4.3 01:40:46 10° NNW 01:46:22 86° ENE 01:51:57 10° SSE
STARLINK-1225 3.6 01:43:19 10° WNW 01:47:28 81° SSW 01:51:38 10° ESE
Cosmos 1898 Rocket 4.1 01:43:55 10° NW 01:48:49 37° WSW 01:53:40 10° S
STARLINK-1271 4.3 01:46:11 10° W 01:49:55 32° SW 01:53:37 10° SSE
Cosmos 2298 Rocket 4.3 01:45:39 10° NNW 01:50:59 76° ENE 01:56:18 10° SSE
Lacrosse 4 Rocket 1.4 01:46:52 10° NW 01:51:14 71° WSW 01:55:27 10° SSE
STARLINK-1230 3.6 01:48:17 10° WNW 01:52:27 78° SSW 01:56:35 10° ESE
Starlink 7 placeholder 2.6 01:50:42 10° W 01:52:37 48° N 01:54:35 10° ENE
IDEFIX/ARIANE 42P 3.5 01:48:38 10° NNE 01:53:46 50° E 01:58:53 10° S
SJ 16-02 2.5 01:50:37 10° NW 01:54:12 24° W 01:57:46 10° SSW
Cosmos 1656 3.9 01:48:43 10° SW 01:54:22 67° NW 01:59:59 10° NNE
Cosmos 2285 Rocket 4.2 01:48:10 10° NNW 01:54:24 55° WSW 02:00:32 10° S
STARLINK-1154 4.4 01:51:12 10° W 01:54:52 30° SW 01:58:30 10° SSE
Cosmos 2084 Rocket 4.4 01:50:40 10° NW 01:55:03 56° NE 01:59:29 10° ESE
CZ-4C R/B 2.5 01:51:20 10° SSW 01:56:20 61° SE 02:02:21 10° NE
Cosmos 2084 4.1 01:53:00 10° WSW 01:57:23 53° NW 02:01:47 10° NE
STARLINK-1243 3.6 01:53:16 10° WNW 01:57:25 74° SSW 02:01:33 10° ESE
Cosmos 468 Rocket 4.2 01:52:51 10° SW 01:57:55 59° WNW 02:03:00 10° NNE
Cosmos 1937 Rocket 4.0 01:54:15 10° NW 01:59:07 41° WSW 02:04:02 10° S
Cosmos 1570 Rocket 4.2 01:54:06 10° SSW 01:59:26 84° ESE 02:04:46 10° NNE
STARLINK-1197 4.5 01:56:13 10° W 01:59:48 29° SW 02:03:23 10° SSE
Cosmos 1953 Rocket 3.8 01:55:32 10° SSW 01:59:56 58° WNW 02:04:21 10° N
Cosmos 2208 Rocket 4.2 01:57:06 10° SSW 02:02:19 76° ESE 02:07:39 10° NNE
Cosmos 2369 3.8 01:56:56 10° SSW 02:02:35 84° ESE 02:08:16 10° NNE
COSMOS 2455 4.4 01:57:33 10° W 02:02:42 28° NNW 02:07:53 10° NNE
